Time,TemperatureF,DewpointF,PressureIn,WindDirection,WindDirectionDegrees,WindSpeedMPH,WindSpeedGustMPH,Humidity,HourlyPrecipIn,Conditions,Clouds,dailyrainin,SolarRadiationWatts/m^2,SoftwareType,DateUTC
2013-07-12 00:00:00,70.8,68.4,29.87,NNW,346,0.0,3.0,92,0.00,,BKN065,0.00,0.00,VWS V14.01,2013-07-12 04:00:00,
2013-07-12 00:01:00,70.8,68.4,29.87,NNW,346,0.0,3.0,92,0.00,,BKN065,0.00,0.00,VWS V14.01,2013-07-12 04:01:00,
2013-07-12 00:02:00,70.8,68.4,29.87,NNW,346,1.0,3.0,92,0.00,,BKN065,0.00,0.00,VWS V14.01,2013-07-12 04:02:00,
2013-07-12 00:05:00,70.8,68.4,29.87,NNW,346,1.0,3.0,92,0.00,,OVC012,0.00,0.00,VWS V14.01,2013-07-12 04:05:00,
2013-07-12 00:07:00,70.7,68.3,29.87,ENE,63,1.0,1.0,92,0.00,,BKN065,0.00,0.00,VWS V14.01,2013-07-12 04:07:00,
2013-07-12 00:10:00,70.7,68.3,29.87,ENE,63,1.0,4.0,92,0.00,,OVC012,0.00,0.00,VWS V14.01,2013-07-12 04:10:00,
2013-07-12 00:12:00,70.6,68.2,29.87,ENE,60,0.0,0.0,92,0.00,,BKN065,0.00,0.00,VWS V14.01,2013-07-12 04:12:00,
2013-07-12 00:15:00,70.6,68.2,29.87,ENE,60,0.0,3.0,92,0.00,,OVC012,0.00,0.00,VWS V14.01,2013-07-12 04:15:00,
2013-07-12 00:18:00,70.6,68.2,29.87,ENE,59,1.0,2.0,92,0.00,,BKN065,0.00,0.00,VWS V14.01,2013-07-12 04:18:00,
2013-07-12 00:20:00,70.6,68.2,29.87,ENE,60,2.0,3.0,92,0.00,,OVC012,0.00,0.00,VWS V14.01,2013-07-12 04:20:00,
2013-07-12 00:23:00,70.5,68.4,29.87,ENE,59,1.0,3.0,93,0.00,,BKN065,0.00,0.00,VWS V14.01,2013-07-12 04:23:00,
2013-07-12 00:25:00,70.5,68.4,29.87,ENE,59,3.0,3.0,93,0.00,,OVC012,0.00,0.00,VWS V14.01,2013-07-12 04:25:00,
2013-07-12 00:28:00,70.5,68.4,29.87,ENE,59,1.0,2.0,93,0.00,,BKN065,0.00,0.00,VWS V14.01,2013-07-12 04:28:00,
2013-07-12 00:30:00,70.5,68.4,29.88,ENE,59,0.0,3.0,93,0.00,,OVC012,0.00,0.00,VWS V14.01,2013-07-12 04:30:00,
2013-07-12 00:33:00,70.5,68.4,29.88,NE,55,0.0,1.0,93,0.00,,BKN065,0.00,0.00,VWS V14.01,2013-07-12 04:33:00,
2013-07-12 00:35:00,70.5,68.4,29.88,NE,56,0.0,4.0,93,0.00,,OVC012,0.00,0.00,VWS V14.01,2013-07-12 04:35:00,
2013-07-12 00:38:00,70.4,68.3,29.88,NE,34,5.0,5.0,93,0.00,,BKN065,0.00,0.00,VWS V14.01,2013-07-12 04:38:00,
2013-07-12 00:40:00,70.4,68.3,29.88,NE,55,0.0,6.0,93,0.00,,OVC012,0.00,0.00,VWS V14.01,2013-07-12 04:40:00,
2013-07-12 00:43:00,70.4,68.3,29.88,NNE,26,1.0,2.0,93,0.00,,BKN065,0.00,0.00,VWS V14.01,2013-07-12 04:43:00,
2013-07-12 00:45:00,70.4,68.3,29.88,NNE,26,1.0,6.0,93,0.00,,OVC012,0.00,0.00,VWS V14.01,2013-07-12 04:45:00,
2013-07-12 00:48:00,70.4,68.6,29.88,North,5,3.0,3.0,94,0.00,,BKN065,0.00,0.00,VWS V14.01,2013-07-12 04:48:00,
2013-07-12 00:50:00,70.4,68.6,29.88,North,5,1.0,5.0,94,0.00,,OVC012,0.00,0.00,VWS V14.01,2013-07-12 04:50:00,
2013-07-12 00:53:00,70.3,68.5,29.87,North,5,0.0,2.0,94,0.00,,BKN065,0.00,0.00,VWS V14.01,2013-07-12 04:53:00,
2013-07-12 00:55:00,70.3,68.5,29.88,North,5,2.0,4.0,94,0.00,,OVC012,0.00,0.00,VWS V14.01,2013-07-12 04:55:00,
2013-07-12 00:58:00,70.2,68.4,29.88,North,5,4.0,6.0,94,0.00,,BKN065,0.00,0.00,VWS V14.01,2013-07-12 04:58:00,
2013-07-12 01:00:00,70.3,68.5,29.88,North,5,2.0,4.0,94,0.00,,OVC012,0.00,0.00,VWS V14.01,2013-07-12 05:00:00,
2013-07-12 01:03:00,70.2,68.4,29.88,North,360,1.0,5.0,94,0.00,,BKN065,0.00,0.00,VWS V14.01,2013-07-12 05:03:00,
2013-07-12 01:05:00,70.2,68.4,29.88,North,5,4.0,7.0,94,0.00,,OVC012,0.00,0.00,VWS V14.01,2013-07-12 05:05:00,
2013-07-12 01:08:00,70.1,68.3,29.88,North,9,3.0,3.0,94,0.00,,BKN065,0.00,0.00,VWS V14.01,2013-07-12 05:08:00,
2013-07-12 01:10:00,70.1,68.3,29.88,North,5,2.0,6.0,94,0.00,,OVC012,0.00,0.00,VWS V14.01,2013-07-12 05:10:00,
2013-07-12 01:13:00,70.0,68.2,29.88,North,355,5.0,6.0,94,0.00,,BKN065,0.00,0.00,VWS V14.01,2013-07-12 05:13:00,
2013-07-12 01:15:00,70.0,68.2,29.88,North,355,3.0,6.0,94,0.00,,OVC012,0.00,0.00,VWS V14.01,2013-07-12 05:15:00,
2013-07-12 01:18:00,69.9,68.1,29.88,North,5,3.0,4.0,94,0.00,,BKN065,0.00,0.00,VWS V14.01,2013-07-12 05:18:00,
2013-07-12 01:20:00,69.9,68.1,29.88,North,5,3.0,6.0,94,0.00,,OVC012,0.00,0.00,VWS V14.01,2013-07-12 05:20:00,
2013-07-12 01:23:00,69.8,68.0,29.88,NNE,12,0.0,5.0,94,0.00,,BKN065,0.00,0.00,VWS V14.01,2013-07-12 05:23:00,
2013-07-12 01:25:00,69.9,68.1,29.88,North,5,1.0,5.0,94,0.00,,OVC012,0.00,0.00,VWS V14.01,2013-07-12 05:25:00,
2013-07-12 01:28:00,69.8,68.0,29.88,North,11,2.0,3.0,94,0.00,,BKN065,0.00,0.00,VWS V14.01,2013-07-12 05:28:00,
2013-07-12 01:30:00,69.8,68.0,29.88,North,11,3.0,5.0,94,0.00,,OVC012,0.00,0.00,VWS V14.01,2013-07-12 05:30:00,
2013-07-12 01:34:00,69.7,67.9,29.89,North,5,1.0,6.0,94,0.00,,BKN065,0.00,0.00,VWS V14.01,2013-07-12 05:34:00,
2013-07-12 01:35:00,69.7,67.9,29.89,NNE,17,1.0,6.0,94,0.00,,OVC012,0.00,0.00,VWS V14.01,2013-07-12 05:35:00,
2013-07-12 01:39:00,69.6,67.8,29.89,North,11,2.0,5.0,94,0.00,,BKN065,0.00,0.00,VWS V14.01,2013-07-12 05:39:00,
2013-07-12 01:40:00,69.6,67.8,29.88,North,11,1.0,6.0,94,0.00,,OVC012,0.00,0.00,VWS V14.01,2013-07-12 05:40:00,
2013-07-12 01:44:00,69.6,67.8,29.89,NNE,15,0.0,5.0,94,0.00,,BKN065,0.00,0.00,VWS V14.01,2013-07-12 05:44:00,
2013-07-12 01:45:00,69.6,67.8,29.89,NNE,15,4.0,7.0,94,0.00,,OVC012,0.00,0.00,VWS V14.01,2013-07-12 05:45:00,
2013-07-12 01:49:00,69.5,67.7,29.89,NNE,15,0.0,1.0,94,0.00,,BKN065,0.00,0.00,VWS V14.01,2013-07-12 05:49:00,
2013-07-12 01:50:00,69.5,67.7,29.89,NNE,15,1.0,5.0,94,0.00,,OVC012,0.00,0.00,VWS V14.01,2013-07-12 05:50:00,
2013-07-12 01:54:00,69.5,67.7,29.89,NNE,23,2.0,4.0,94,0.00,,BKN065,0.00,0.00,VWS V14.01,2013-07-12 05:54:00,
2013-07-12 01:55:00,69.5,67.7,29.89,NNE,22,2.0,5.0,94,0.00,,OVC012,0.00,0.00,VWS V14.01,2013-07-12 05:55:00,
2013-07-12 01:59:00,69.4,67.6,29.89,North,9,4.0,6.0,94,0.00,,BKN065,0.00,0.00,VWS V14.01,2013-07-12 05:59:00,
2013-07-12 02:00:00,69.5,67.7,29.89,NNE,20,2.0,4.0,94,0.00,,OVC012,0.00,0.00,VWS V14.01,2013-07-12 06:00:00,
2013-07-12 02:04:00,69.4,67.6,29.89,North,9,2.0,4.0,94,0.00,,BKN065,0.00,0.00,VWS V14.01,2013-07-12 06:04:00,
2013-07-12 02:05:00,69.4,67.6,29.89,North,9,0.0,6.0,94,0.00,,OVC012,0.00,0.00,VWS V14.01,2013-07-12 06:05:00,
2013-07-12 02:09:00,69.3,67.5,29.90,North,355,1.0,4.0,94,0.00,,BKN065,0.00,0.00,VWS V14.01,2013-07-12 06:09:00,
2013-07-12 02:10:00,69.3,67.5,29.89,North,355,4.0,6.0,94,0.00,,OVC012,0.00,0.00,VWS V14.01,2013-07-12 06:10:00,
2013-07-12 02:14:00,69.2,67.1,29.90,NNE,15,0.0,4.0,93,0.00,,BKN065,0.00,0.00,VWS V14.01,2013-07-12 06:14:00,
2013-07-12 02:15:00,69.2,67.1,29.90,NNE,15,1.0,6.0,93,0.00,,OVC012,0.00,0.00,VWS V14.01,2013-07-12 06:15:00,
2013-07-12 02:19:00,69.0,66.9,29.90,NNE,19,1.0,5.0,93,0.00,,BKN065,0.00,0.00,VWS V14.01,2013-07-12 06:19:00,
2013-07-12 02:20:00,69.1,67.0,29.90,North,5,2.0,6.0,93,0.00,,OVC012,0.00,0.00,VWS V14.01,2013-07-12 06:20:00,
2013-07-12 02:24:00,68.9,66.5,29.90,ENE,57,1.0,6.0,92,0.00,,BKN065,0.00,0.00,VWS V14.01,2013-07-12 06:24:00,
2013-07-12 02:25:00,69.0,66.6,29.90,NNE,18,2.0,5.0,92,0.00,,OVC012,0.00,0.00,VWS V14.01,2013-07-12 06:25:00,
2013-07-12 02:29:00,68.9,66.2,29.90,NNE,12,1.0,5.0,91,0.00,,BKN065,0.00,0.00,VWS V14.01,2013-07-12 06:29:00,
2013-07-12 02:30:00,68.9,66.5,29.90,NNE,19,0.0,6.0,92,0.00,,OVC012,0.00,0.00,VWS V14.01,2013-07-12 06:30:00,
2013-07-12 02:34:00,68.9,65.8,29.90,NNE,26,3.0,4.0,90,0.00,,BKN065,0.00,0.00,VWS V14.01,2013-07-12 06:34:00,
2013-07-12 02:35:00,68.9,66.2,29.90,NNE,13,2.0,5.0,91,0.00,,OVC012,0.00,0.00,VWS V14.01,2013-07-12 06:35:00,
2013-07-12 02:39:00,68.8,65.4,29.90,North,9,9.0,9.0,89,0.00,,BKN065,0.00,0.00,VWS V14.01,2013-07-12 06:39:00,
2013-07-12 02:40:00,68.9,65.8,29.90,NNE,30,3.0,4.0,90,0.00,,OVC012,0.00,0.00,VWS V14.01,2013-07-12 06:40:00,
2013-07-12 02:44:00,68.8,64.8,29.90,NE,41,4.0,6.0,87,0.00,,BKN065,0.00,0.00,VWS V14.01,2013-07-12 06:44:00,
2013-07-12 02:45:00,68.8,65.1,29.90,North,10,3.0,9.0,88,0.00,,OVC012,0.00,0.00,VWS V14.01,2013-07-12 06:45:00,
2013-07-12 02:49:00,68.9,64.6,29.90,NNE,18,3.0,6.0,86,0.00,,BKN065,0.00,0.00,VWS V14.01,2013-07-12 06:49:00,
2013-07-12 02:50:00,68.8,64.4,29.90,NNE,17,2.0,6.0,86,0.00,,OVC012,0.00,0.00,VWS V14.01,2013-07-12 06:50:00,
2013-07-12 02:55:00,68.9,64.2,29.90,NNE,20,5.0,5.0,85,0.00,,BKN065,0.00,0.00,VWS V14.01,2013-07-12 06:55:00,
2013-07-12 03:00:00,68.9,63.9,29.91,NNE,28,4.0,5.0,84,0.00,,BKN065,0.00,0.00,VWS V14.01,2013-07-12 07:00:00,
2013-07-12 03:05:00,68.8,63.8,29.91,North,5,2.0,8.0,84,0.00,,BKN065,0.00,0.00,VWS V14.01,2013-07-12 07:05:00,
2013-07-12 03:10:00,68.8,63.4,29.91,North,11,2.0,6.0,83,0.00,,BKN065,0.00,0.00,VWS V14.01,2013-07-12 07:10:00,
2013-07-12 03:15:00,68.7,63.3,29.91,NNE,31,2.0,6.0,83,0.00,,BKN065,0.00,0.00,VWS V14.01,2013-07-12 07:15:00,
2013-07-12 03:20:00,68.5,63.1,29.92,NE,38,2.0,5.0,83,0.00,,BKN065,0.00,0.00,VWS V14.01,2013-07-12 07:20:00,
2013-07-12 03:25:00,68.4,63.0,29.92,NE,37,0.0,4.0,83,0.00,,BKN065,0.00,0.00,VWS V14.01,2013-07-12 07:25:00,
2013-07-12 03:30:00,68.3,62.9,29.92,NNE,27,1.0,5.0,83,0.00,,BKN065,0.00,0.00,VWS V14.01,2013-07-12 07:30:00,
2013-07-12 03:35:00,68.2,62.5,29.92,NNE,24,2.0,4.0,82,0.00,,BKN065,0.00,0.00,VWS V14.01,2013-07-12 07:35:00,
2013-07-12 03:40:00,68.1,62.4,29.92,NNE,22,3.0,7.0,82,0.00,,BKN065,0.00,0.00,VWS V14.01,2013-07-12 07:40:00,
2013-07-12 03:45:00,68.1,62.4,29.93,NNE,14,1.0,5.0,82,0.00,,BKN065,0.00,0.00,VWS V14.01,2013-07-12 07:45:00,
2013-07-12 03:50:00,68.0,62.3,29.93,NE,48,0.0,5.0,82,0.00,,BKN065,0.00,0.00,VWS V14.01,2013-07-12 07:50:00,
2013-07-12 03:55:00,67.9,62.2,29.93,NE,49,0.0,2.0,82,0.00,,BKN065,0.00,0.00,VWS V14.01,2013-07-12 07:55:00,
2013-07-12 04:00:00,67.8,62.1,29.93,NE,46,2.0,4.0,82,0.00,,BKN065,0.00,0.00,VWS V14.01,2013-07-12 08:00:00,
2013-07-12 04:05:00,67.6,61.9,29.93,NE,43,1.0,4.0,82,0.00,,BKN065,0.00,0.00,VWS V14.01,2013-07-12 08:05:00,
2013-07-12 04:10:00,67.6,61.9,29.93,NNE,28,0.0,4.0,82,0.00,,BKN065,0.00,0.00,VWS V14.01,2013-07-12 08:10:00,
2013-07-12 04:15:00,67.6,61.9,29.94,NNE,28,1.0,4.0,82,0.00,,OVC012,0.00,0.00,VWS V14.01,2013-07-12 08:15:00,
2013-07-12 04:16:00,67.6,61.9,29.94,NNE,18,2.0,5.0,82,0.00,,BKN065,0.00,0.00,VWS V14.01,2013-07-12 08:16:00,
2013-07-12 04:20:00,67.5,61.8,29.94,NNE,17,1.0,5.0,82,0.00,,OVC012,0.00,0.00,VWS V14.01,2013-07-12 08:20:00,
2013-07-12 04:21:00,67.5,61.5,29.94,NNE,12,0.0,6.0,81,0.00,,BKN065,0.00,0.00,VWS V14.01,2013-07-12 08:21:00,
2013-07-12 04:25:00,67.4,61.4,29.94,NNE,12,0.0,6.0,81,0.00,,OVC012,0.00,0.00,VWS V14.01,2013-07-12 08:25:00,
2013-07-12 04:26:00,67.4,61.4,29.94,NNE,12,1.0,4.0,81,0.00,,BKN065,0.00,0.00,VWS V14.01,2013-07-12 08:26:00,
2013-07-12 04:30:00,67.3,61.3,29.95,NNE,12,0.0,4.0,81,0.00,,OVC012,0.00,0.00,VWS V14.01,2013-07-12 08:30:00,
2013-07-12 04:31:00,67.3,61.3,29.95,North,11,2.0,4.0,81,0.00,,BKN065,0.00,0.00,VWS V14.01,2013-07-12 08:31:00,
2013-07-12 04:35:00,67.3,61.3,29.95,NNE,26,1.0,6.0,81,0.00,,OVC012,0.00,0.00,VWS V14.01,2013-07-12 08:35:00,
2013-07-12 04:36:00,67.2,61.2,29.95,NNE,23,3.0,5.0,81,0.00,,BKN065,0.00,0.00,VWS V14.01,2013-07-12 08:36:00,
2013-07-12 04:40:00,67.2,61.2,29.95,NNE,23,3.0,5.0,81,0.00,,OVC012,0.00,0.00,VWS V14.01,2013-07-12 08:40:00,
2013-07-12 04:41:00,67.2,61.2,29.95,NNE,21,2.0,4.0,81,0.00,,BKN065,0.00,0.00,VWS V14.01,2013-07-12 08:41:00,
2013-07-12 04:45:00,67.2,61.2,29.96,NNE,20,3.0,4.0,81,0.00,,OVC012,0.00,0.00,VWS V14.01,2013-07-12 08:45:00,
2013-07-12 04:46:00,67.2,61.2,29.96,NNE,21,0.0,3.0,81,0.00,,BKN065,0.00,0.00,VWS V14.01,2013-07-12 08:46:00,
2013-07-12 04:50:00,67.2,61.2,29.96,NNE,20,0.0,3.0,81,0.00,,OVC012,0.00,0.00,VWS V14.01,2013-07-12 08:50:00,
2013-07-12 04:51:00,67.1,61.1,29.95,NNE,21,0.0,2.0,81,0.00,,BKN065,0.00,0.00,VWS V14.01,2013-07-12 08:51:00,
2013-07-12 04:55:00,67.0,61.0,29.96,NNE,21,0.0,2.0,81,0.00,,OVC012,0.00,0.00,VWS V14.01,2013-07-12 08:55:00,
2013-07-12 04:56:00,66.9,60.9,29.96,NNE,21,3.0,3.0,81,0.00,,BKN065,0.00,0.00,VWS V14.01,2013-07-12 08:56:00,
2013-07-12 05:00:00,66.9,60.9,29.96,NNE,21,0.0,3.0,81,0.00,,OVC012,0.00,0.00,VWS V14.01,2013-07-12 09:00:00,
2013-07-12 05:01:00,66.9,60.5,29.96,NNE,24,2.0,5.0,80,0.00,,BKN065,0.00,0.00,VWS V14.01,2013-07-12 09:01:00,
2013-07-12 05:05:00,66.9,60.5,29.96,NNE,15,2.0,5.0,80,0.00,,OVC012,0.00,0.00,VWS V14.01,2013-07-12 09:05:00,
2013-07-12 05:06:00,66.9,60.2,29.96,NE,49,2.0,5.0,79,0.00,,BKN065,0.00,0.00,VWS V14.01,2013-07-12 09:06:00,
2013-07-12 05:10:00,66.9,60.2,29.96,NE,49,1.0,5.0,79,0.00,,OVC012,0.00,0.00,VWS V14.01,2013-07-12 09:10:00,
2013-07-12 05:11:00,67.0,59.9,29.96,NE,51,2.0,5.0,78,0.00,,BKN065,0.00,0.00,VWS V14.01,2013-07-12 09:11:00,
2013-07-12 05:15:00,67.0,59.9,29.96,NE,51,2.0,5.0,78,0.00,,OVC012,0.00,0.00,VWS V14.01,2013-07-12 09:15:00,
2013-07-12 05:16:00,67.1,59.7,29.96,NE,55,3.0,6.0,77,0.00,,BKN065,0.00,0.00,VWS V14.01,2013-07-12 09:16:00,
2013-07-12 05:20:00,67.1,59.7,29.96,NE,55,1.0,6.0,77,0.00,,OVC012,0.00,0.00,VWS V14.01,2013-07-12 09:20:00,
2013-07-12 05:21:00,67.2,59.8,29.96,ENE,57,1.0,4.0,77,0.00,,BKN065,0.00,5.00,VWS V14.01,2013-07-12 09:21:00,
2013-07-12 05:25:00,67.2,59.8,29.96,NE,56,3.0,4.0,77,0.00,,OVC012,0.00,5.00,VWS V14.01,2013-07-12 09:25:00,
2013-07-12 05:26:00,67.2,59.4,29.96,NE,49,0.0,4.0,76,0.00,,BKN065,0.00,9.00,VWS V14.01,2013-07-12 09:26:00,
2013-07-12 05:30:00,67.1,59.3,29.96,NE,49,2.0,4.0,76,0.00,,OVC012,0.00,9.00,VWS V14.01,2013-07-12 09:30:00,
2013-07-12 05:32:00,67.1,59.3,29.97,NE,50,0.0,3.0,76,0.00,,BKN065,0.00,11.00,VWS V14.01,2013-07-12 09:32:00,
2013-07-12 05:35:00,67.1,59.3,29.97,NE,49,0.0,3.0,76,0.00,,OVC012,0.00,12.00,VWS V14.01,2013-07-12 09:35:00,
2013-07-12 05:37:00,67.1,59.3,29.97,NE,49,0.0,3.0,76,0.00,,BKN065,0.00,18.00,VWS V14.01,2013-07-12 09:37:00,
2013-07-12 05:40:00,67.1,59.3,29.97,NE,49,3.0,3.0,76,0.00,,OVC012,0.00,18.00,VWS V14.01,2013-07-12 09:40:00,
2013-07-12 05:42:00,67.1,58.9,29.97,NE,37,0.0,8.0,75,0.00,,BKN065,0.00,33.00,VWS V14.01,2013-07-12 09:42:00,
2013-07-12 05:45:00,67.1,58.9,29.97,NE,36,3.0,8.0,75,0.00,,OVC012,0.00,33.00,VWS V14.01,2013-07-12 09:45:00,
2013-07-12 05:47:00,67.2,59.0,29.98,NE,37,0.0,4.0,75,0.00,,BKN065,0.00,42.00,VWS V14.01,2013-07-12 09:47:00,
2013-07-12 05:50:00,67.2,59.0,29.98,NE,36,0.0,4.0,75,0.00,,OVC012,0.00,42.00,VWS V14.01,2013-07-12 09:50:00,
2013-07-12 05:52:00,67.4,59.2,29.98,NE,37,0.0,2.0,75,0.00,,BKN065,0.00,46.00,VWS V14.01,2013-07-12 09:52:00,
2013-07-12 05:55:00,67.4,59.2,29.98,NE,37,3.0,3.0,75,0.00,,OVC012,0.00,46.00,VWS V14.01,2013-07-12 09:55:00,
2013-07-12 05:57:00,67.4,58.8,29.97,NNE,19,4.0,5.0,74,0.00,,BKN065,0.00,56.00,VWS V14.01,2013-07-12 09:57:00,
2013-07-12 06:00:00,67.4,58.8,29.97,NNE,19,3.0,5.0,74,0.00,,OVC012,0.00,56.00,VWS V14.01,2013-07-12 10:00:00,
2013-07-12 06:02:00,67.5,58.9,29.97,NNE,32,0.0,6.0,74,0.00,,BKN065,0.00,54.00,VWS V14.01,2013-07-12 10:02:00,
2013-07-12 06:05:00,67.5,58.9,29.97,NNE,32,0.0,6.0,74,0.00,,OVC012,0.00,54.00,VWS V14.01,2013-07-12 10:05:00,
2013-07-12 06:07:00,67.5,58.9,29.98,NNE,32,1.0,4.0,74,0.00,,BKN065,0.00,60.00,VWS V14.01,2013-07-12 10:07:00,
2013-07-12 06:10:00,67.5,58.9,29.98,NNE,32,2.0,4.0,74,0.00,,OVC012,0.00,60.00,VWS V14.01,2013-07-12 10:10:00,
2013-07-12 06:12:00,67.5,58.9,29.98,NE,34,2.0,4.0,74,0.00,,BKN065,0.00,69.00,VWS V14.01,2013-07-12 10:12:00,
2013-07-12 06:15:00,67.5,58.9,29.98,NE,34,2.0,4.0,74,0.00,,OVC012,0.00,69.00,VWS V14.01,2013-07-12 10:15:00,
2013-07-12 06:17:00,67.4,58.8,29.98,NNE,27,0.0,6.0,74,0.00,,BKN065,0.00,47.00,VWS V14.01,2013-07-12 10:17:00,
2013-07-12 06:20:00,67.4,58.8,29.98,NNE,27,0.0,6.0,74,0.00,,OVC012,0.00,47.00,VWS V14.01,2013-07-12 10:20:00,
2013-07-12 06:22:00,67.2,58.6,29.98,NE,38,3.0,4.0,74,0.00,,BKN065,0.00,54.00,VWS V14.01,2013-07-12 10:22:00,
2013-07-12 06:25:00,67.2,58.6,29.98,NE,38,4.0,5.0,74,0.00,,OVC012,0.00,54.00,VWS V14.01,2013-07-12 10:25:00,
2013-07-12 06:27:00,67.1,58.5,29.99,NNE,33,0.0,1.0,74,0.00,,BKN065,0.00,65.00,VWS V14.01,2013-07-12 10:27:00,
2013-07-12 06:30:00,67.1,58.5,29.99,NNE,32,0.0,7.0,74,0.00,,OVC012,0.00,65.00,VWS V14.01,2013-07-12 10:30:00,
2013-07-12 06:32:00,67.1,58.9,29.98,NNE,27,0.0,0.0,75,0.00,,BKN065,0.00,84.00,VWS V14.01,2013-07-12 10:32:00,
2013-07-12 06:35:00,67.1,58.9,29.98,NNE,27,0.0,5.0,75,0.00,,OVC012,0.00,84.00,VWS V14.01,2013-07-12 10:35:00,
2013-07-12 06:37:00,67.2,59.0,29.98,NNE,19,0.0,0.0,75,0.00,,BKN065,0.00,123.00,VWS V14.01,2013-07-12 10:37:00,
2013-07-12 06:40:00,67.2,59.0,29.98,NNE,19,0.0,5.0,75,0.00,,OVC012,0.00,123.00,VWS V14.01,2013-07-12 10:40:00,
2013-07-12 06:42:00,67.3,58.7,29.98,NNE,30,2.0,4.0,74,0.00,,BKN065,0.00,176.00,VWS V14.01,2013-07-12 10:42:00,
2013-07-12 06:45:00,67.3,58.7,29.98,NNE,30,4.0,5.0,74,0.00,,OVC012,0.00,176.00,VWS V14.01,2013-07-12 10:45:00,
2013-07-12 06:48:00,67.5,58.9,29.99,NNE,23,3.0,3.0,74,0.00,,BKN065,0.00,132.00,VWS V14.01,2013-07-12 10:48:00,
2013-07-12 06:50:00,67.5,58.9,29.99,NNE,23,3.0,7.0,74,0.00,,OVC012,0.00,130.00,VWS V14.01,2013-07-12 10:50:00,
2013-07-12 06:53:00,67.5,58.9,29.99,NNE,22,2.0,3.0,74,0.00,,BKN065,0.00,91.00,VWS V14.01,2013-07-12 10:53:00,
2013-07-12 06:55:00,67.6,59.0,29.99,NNE,23,3.0,5.0,74,0.00,,OVC012,0.00,95.00,VWS V14.01,2013-07-12 10:55:00,
2013-07-12 06:58:00,67.4,58.8,29.99,NNE,15,0.0,0.0,74,0.00,,BKN065,0.00,84.00,VWS V14.01,2013-07-12 10:58:00,
2013-07-12 07:00:00,67.4,58.8,29.99,NNE,14,0.0,5.0,74,0.00,,OVC012,0.00,84.00,VWS V14.01,2013-07-12 11:00:00,
2013-07-12 07:03:00,67.4,58.8,30.00,North,9,4.0,5.0,74,0.00,,BKN065,0.00,84.00,VWS V14.01,2013-07-12 11:03:00,
2013-07-12 07:05:00,67.4,58.8,30.00,NNE,14,0.0,3.0,74,0.00,,OVC012,0.00,86.00,VWS V14.01,2013-07-12 11:05:00,
2013-07-12 07:08:00,67.2,58.6,30.00,NNE,25,3.0,7.0,74,0.00,,BKN065,0.00,83.00,VWS V14.01,2013-07-12 11:08:00,
2013-07-12 07:10:00,67.2,58.6,30.00,NNE,13,7.0,9.0,74,0.00,,OVC012,0.00,83.00,VWS V14.01,2013-07-12 11:10:00,
2013-07-12 07:13:00,67.1,58.5,30.00,NNE,25,0.0,2.0,74,0.00,,BKN065,0.00,95.00,VWS V14.01,2013-07-12 11:13:00,
2013-07-12 07:15:00,67.2,58.6,30.01,NNE,25,1.0,7.0,74,0.00,,OVC012,0.00,91.00,VWS V14.01,2013-07-12 11:15:00,
2013-07-12 07:18:00,67.0,58.8,30.00,North,5,2.0,3.0,75,0.00,,BKN065,0.00,141.00,VWS V14.01,2013-07-12 11:18:00,
2013-07-12 07:20:00,67.0,58.8,30.00,North,5,1.0,6.0,75,0.00,,OVC012,0.00,141.00,VWS V14.01,2013-07-12 11:20:00,
2013-07-12 07:23:00,67.1,59.3,30.00,North,5,0.0,1.0,76,0.00,,BKN065,0.00,128.00,VWS V14.01,2013-07-12 11:23:00,
2013-07-12 07:25:00,67.1,59.3,30.00,North,5,0.0,4.0,76,0.00,,OVC012,0.00,130.00,VWS V14.01,2013-07-12 11:25:00,
2013-07-12 07:28:00,67.1,58.9,30.01,North,355,2.0,3.0,75,0.00,,BKN065,0.00,132.00,VWS V14.01,2013-07-12 11:28:00,
2013-07-12 07:30:00,67.1,58.9,30.01,North,355,3.0,6.0,75,0.00,,OVC012,0.00,130.00,VWS V14.01,2013-07-12 11:30:00,
2013-07-12 07:33:00,67.2,59.0,30.02,NE,35,1.0,4.0,75,0.00,,BKN065,0.00,153.00,VWS V14.01,2013-07-12 11:33:00,
2013-07-12 07:35:00,67.2,59.4,30.02,NE,35,4.0,4.0,76,0.00,,OVC012,0.00,149.00,VWS V14.01,2013-07-12 11:35:00,
2013-07-12 07:38:00,67.3,59.1,30.01,NE,41,0.0,3.0,75,0.00,,BKN065,0.00,244.00,VWS V14.01,2013-07-12 11:38:00,
2013-07-12 07:40:00,67.3,59.1,30.01,NE,42,3.0,4.0,75,0.00,,OVC012,0.00,213.00,VWS V14.01,2013-07-12 11:40:00,
2013-07-12 07:43:00,67.9,59.7,30.01,NE,39,3.0,3.0,75,0.00,,BKN065,0.00,359.00,VWS V14.01,2013-07-12 11:43:00,
2013-07-12 07:45:00,67.7,59.5,30.01,NE,39,1.0,3.0,75,0.00,,OVC012,0.00,387.00,VWS V14.01,2013-07-12 11:45:00,
2013-07-12 07:48:00,68.2,59.6,30.02,NNE,28,2.0,4.0,74,0.00,,BKN065,0.00,251.00,VWS V14.01,2013-07-12 11:48:00,
2013-07-12 07:50:00,68.2,59.6,30.02,NNE,28,2.0,5.0,74,0.00,,OVC012,0.00,246.00,VWS V14.01,2013-07-12 11:50:00,
2013-07-12 07:53:00,68.3,59.7,30.01,NNE,21,5.0,6.0,74,0.00,,BKN065,0.00,276.00,VWS V14.01,2013-07-12 11:53:00,
2013-07-12 07:55:00,68.3,60.5,30.01,North,360,1.0,6.0,76,0.00,,OVC012,0.00,253.00,VWS V14.01,2013-07-12 11:55:00,
2013-07-12 07:58:00,68.5,60.3,30.01,NNE,17,3.0,3.0,75,0.00,,BKN065,0.00,330.00,VWS V14.01,2013-07-12 11:58:00,
2013-07-12 08:00:00,68.4,59.8,30.01,NNE,24,1.0,6.0,74,0.00,,OVC012,0.00,292.00,VWS V14.01,2013-07-12 12:00:00,
2013-07-12 08:03:00,68.7,60.1,30.02,North,5,6.0,7.0,74,0.00,,BKN065,0.00,230.00,VWS V14.01,2013-07-12 12:03:00,
2013-07-12 08:05:00,68.6,59.6,30.01,NNE,28,1.0,5.0,73,0.00,,OVC012,0.00,225.00,VWS V14.01,2013-07-12 12:05:00,
2013-07-12 08:09:00,68.8,60.2,30.02,NNE,19,1.0,3.0,74,0.00,,BKN065,0.00,323.00,VWS V14.01,2013-07-12 12:09:00,
2013-07-12 08:10:00,68.7,60.1,30.02,NNE,19,2.0,7.0,74,0.00,,OVC012,0.00,397.00,VWS V14.01,2013-07-12 12:10:00,
2013-07-12 08:14:00,69.4,60.8,30.01,NNW,346,7.0,8.0,74,0.00,,BKN065,0.00,592.00,VWS V14.01,2013-07-12 12:14:00,
2013-07-12 08:15:00,69.2,60.2,30.01,NNE,16,5.0,5.0,73,0.00,,OVC012,0.00,566.00,VWS V14.01,2013-07-12 12:15:00,
2013-07-12 08:19:00,69.8,60.4,30.02,NNE,24,6.0,6.0,72,0.00,,BKN065,0.00,380.00,VWS V14.01,2013-07-12 12:19:00,
2013-07-12 08:20:00,69.7,60.7,30.02,ENE,69,0.0,8.0,73,0.00,,OVC012,0.00,334.00,VWS V14.01,2013-07-12 12:20:00,
2013-07-12 08:24:00,69.7,60.3,30.03,NE,40,5.0,8.0,72,0.00,,BKN065,0.00,267.00,VWS V14.01,2013-07-12 12:24:00,
2013-07-12 08:25:00,69.8,60.4,30.02,ENE,76,3.0,7.0,72,0.00,,OVC012,0.00,241.00,VWS V14.01,2013-07-12 12:25:00,
2013-07-12 08:29:00,69.8,60.4,30.02,NNW,331,6.0,7.0,72,0.00,,BKN065,0.00,513.00,VWS V14.01,2013-07-12 12:29:00,
2013-07-12 08:30:00,69.6,60.2,30.02,NNW,348,3.0,8.0,72,0.00,,OVC012,0.00,332.00,VWS V14.01,2013-07-12 12:30:00,
2013-07-12 08:34:00,70.0,60.2,30.02,ENE,57,2.0,5.0,71,0.00,,BKN065,0.00,517.00,VWS V14.01,2013-07-12 12:34:00,
2013-07-12 08:35:00,69.9,60.5,30.02,ENE,77,4.0,9.0,72,0.00,,OVC012,0.00,371.00,VWS V14.01,2013-07-12 12:35:00,
2013-07-12 08:39:00,69.9,59.7,30.02,NE,49,3.0,5.0,70,0.00,,BKN065,0.00,401.00,VWS V14.01,2013-07-12 12:39:00,
2013-07-12 08:40:00,69.9,60.1,30.02,ENE,71,3.0,10.0,71,0.00,,OVC012,0.00,446.00,VWS V14.01,2013-07-12 12:40:00,
2013-07-12 08:44:00,70.1,59.5,30.02,ENE,78,5.0,13.0,69,0.00,,BKN065,0.00,501.00,VWS V14.01,2013-07-12 12:44:00,
2013-07-12 08:45:00,70.1,60.3,30.02,East,97,4.0,7.0,71,0.00,,OVC012,0.00,633.00,VWS V14.01,2013-07-12 12:45:00,
2013-07-12 08:49:00,70.2,60.0,30.02,East,80,5.0,8.0,70,0.00,,BKN065,0.00,341.00,VWS V14.01,2013-07-12 12:49:00,
2013-07-12 08:50:00,70.2,60.8,30.02,ENE,74,5.0,13.0,72,0.00,,OVC012,0.00,596.00,VWS V14.01,2013-07-12 12:50:00,
2013-07-12 08:54:00,69.9,60.1,30.03,ENE,77,8.0,9.0,71,0.00,,BKN065,0.00,292.00,VWS V14.01,2013-07-12 12:54:00,
2013-07-12 08:55:00,70.1,60.3,30.02,East,84,8.0,8.0,71,0.00,,OVC012,0.00,339.00,VWS V14.01,2013-07-12 12:55:00,
2013-07-12 08:59:00,70.1,59.9,30.03,East,88,12.0,13.0,70,0.00,,BKN065,0.00,715.00,VWS V14.01,2013-07-12 12:59:00,
2013-07-12 09:00:00,69.9,60.1,30.03,NE,55,4.0,11.0,71,0.00,,OVC012,0.00,698.00,VWS V14.01,2013-07-12 13:00:00,
2013-07-12 09:04:00,70.0,59.4,30.03,East,94,8.0,13.0,69,0.00,,BKN065,0.00,353.00,VWS V14.01,2013-07-12 13:04:00,
2013-07-12 09:05:00,70.2,60.0,30.03,East,88,12.0,14.0,70,0.00,,OVC012,0.00,366.00,VWS V14.01,2013-07-12 13:05:00,
2013-07-12 09:09:00,70.1,59.5,30.03,ENE,62,8.0,12.0,69,0.00,,BKN065,0.00,413.00,VWS V14.01,2013-07-12 13:09:00,
2013-07-12 09:10:00,70.1,60.3,30.03,ENE,75,4.0,13.0,71,0.00,,OVC012,0.00,418.00,VWS V14.01,2013-07-12 13:10:00,
2013-07-12 09:14:00,69.9,59.3,30.03,ENE,62,12.0,13.0,69,0.00,,BKN065,0.00,388.00,VWS V14.01,2013-07-12 13:14:00,
2013-07-12 09:15:00,70.1,59.5,30.03,ENE,62,4.0,13.0,69,0.00,,OVC012,0.00,411.00,VWS V14.01,2013-07-12 13:15:00,
2013-07-12 09:20:00,69.7,59.5,30.04,ENE,73,7.0,11.0,70,0.00,,BKN065,0.00,260.00,VWS V14.01,2013-07-12 13:20:00,
2013-07-12 09:25:00,69.4,58.8,30.03,East,81,5.0,17.0,69,0.00,,BKN065,0.00,214.00,VWS V14.01,2013-07-12 13:25:00,
2013-07-12 09:30:00,69.2,59.0,30.04,NE,45,11.0,11.0,70,0.00,,BKN065,0.00,221.00,VWS V14.01,2013-07-12 13:30:00,
2013-07-12 09:35:00,69.2,59.4,30.03,ENE,74,7.0,10.0,71,0.00,,BKN065,0.00,236.00,VWS V14.01,2013-07-12 13:35:00,
2013-07-12 09:40:00,69.3,59.5,30.03,ENE,76,5.0,6.0,71,0.00,,BKN065,0.00,265.00,VWS V14.01,2013-07-12 13:40:00,
2013-07-12 09:45:00,69.4,59.6,30.04,NE,44,2.0,11.0,71,0.00,,BKN065,0.00,236.00,VWS V14.01,2013-07-12 13:45:00,
2013-07-12 09:50:00,69.4,59.6,30.04,East,80,8.0,12.0,71,0.00,,BKN065,0.00,272.00,VWS V14.01,2013-07-12 13:50:00,
2013-07-12 09:55:00,69.3,59.5,30.04,ENE,65,5.0,15.0,71,0.00,,BKN065,0.00,330.00,VWS V14.01,2013-07-12 13:55:00,
2013-07-12 10:00:00,69.3,59.1,30.05,ENE,67,10.0,13.0,70,0.00,,BKN065,0.00,318.00,VWS V14.01,2013-07-12 14:00:00,
2013-07-12 10:05:00,69.2,59.4,30.05,East,79,8.0,11.0,71,0.00,,BKN065,0.00,341.00,VWS V14.01,2013-07-12 14:05:00,
2013-07-12 10:10:00,69.2,59.0,30.05,ENE,66,7.0,11.0,70,0.00,,BKN065,0.00,318.00,VWS V14.01,2013-07-12 14:10:00,
2013-07-12 10:15:00,69.2,59.0,30.05,ENE,77,10.0,12.0,70,0.00,,BKN065,0.00,302.00,VWS V14.01,2013-07-12 14:15:00,
2013-07-12 10:20:00,69.3,59.1,30.06,East,85,4.0,8.0,70,0.00,,BKN065,0.00,399.00,VWS V14.01,2013-07-12 14:20:00,
2013-07-12 10:25:00,69.2,59.4,30.06,ENE,60,3.0,14.0,71,0.00,,BKN065,0.00,322.00,VWS V14.01,2013-07-12 14:25:00,
2013-07-12 10:30:00,69.2,59.0,30.06,North,9,3.0,10.0,70,0.00,,BKN065,0.00,373.00,VWS V14.01,2013-07-12 14:30:00,
2013-07-12 10:35:00,69.3,59.5,30.06,ENE,61,6.0,10.0,71,0.00,,OVC012,0.00,341.00,VWS V14.01,2013-07-12 14:35:00,
2013-07-12 10:36:00,69.3,59.1,30.06,ENE,63,4.0,11.0,70,0.00,,BKN065,0.00,385.00,VWS V14.01,2013-07-12 14:36:00,
2013-07-12 10:40:00,69.4,59.6,30.06,ENE,70,6.0,11.0,71,0.00,,OVC012,0.00,359.00,VWS V14.01,2013-07-12 14:40:00,
2013-07-12 10:41:00,69.6,59.4,30.06,ENE,71,5.0,11.0,70,0.00,,BKN065,0.00,392.00,VWS V14.01,2013-07-12 14:41:00,
2013-07-12 10:45:00,69.7,59.5,30.06,ENE,78,7.0,11.0,70,0.00,,OVC012,0.00,381.00,VWS V14.01,2013-07-12 14:45:00,
2013-07-12 10:46:00,69.4,58.8,30.07,ENE,78,5.0,14.0,69,0.00,,BKN065,0.00,325.00,VWS V14.01,2013-07-12 14:46:00,
2013-07-12 10:50:00,69.4,59.2,30.07,East,92,1.0,14.0,70,0.00,,OVC012,0.00,325.00,VWS V14.01,2013-07-12 14:50:00,
2013-07-12 10:51:00,69.4,59.2,30.07,East,94,6.0,8.0,70,0.00,,BKN065,0.00,251.00,VWS V14.01,2013-07-12 14:51:00,
2013-07-12 10:55:00,69.4,59.2,30.07,ENE,78,5.0,8.0,70,0.00,,OVC012,0.00,239.00,VWS V14.01,2013-07-12 14:55:00,
2013-07-12 10:56:00,69.3,58.7,30.07,ENE,74,5.0,12.0,69,0.00,,BKN065,0.00,244.00,VWS V14.01,2013-07-12 14:56:00,
2013-07-12 11:00:00,69.2,59.0,30.07,NE,34,6.0,12.0,70,0.00,,OVC012,0.00,258.00,VWS V14.01,2013-07-12 15:00:00,
2013-07-12 11:01:00,69.0,58.0,30.07,ENE,67,8.0,15.0,68,0.00,,BKN065,0.00,304.00,VWS V14.01,2013-07-12 15:01:00,
2013-07-12 11:05:00,68.9,57.9,30.07,ENE,75,7.0,15.0,68,0.00,,OVC012,0.00,304.00,VWS V14.01,2013-07-12 15:05:00,
2013-07-12 11:06:00,68.9,58.7,30.07,East,86,14.0,15.0,70,0.00,,BKN065,0.00,309.00,VWS V14.01,2013-07-12 15:06:00,
2013-07-12 11:10:00,68.8,58.6,30.07,ENE,78,12.0,15.0,70,0.00,,OVC012,0.00,341.00,VWS V14.01,2013-07-12 15:10:00,
2013-07-12 11:11:00,68.8,58.2,30.07,East,93,11.0,13.0,69,0.00,,BKN065,0.00,355.00,VWS V14.01,2013-07-12 15:11:00,
2013-07-12 11:15:00,68.8,58.6,30.07,ENE,68,2.0,13.0,70,0.00,,OVC012,0.00,353.00,VWS V14.01,2013-07-12 15:15:00,
2013-07-12 11:16:00,68.9,58.3,30.07,East,101,8.0,17.0,69,0.00,,BKN065,0.00,334.00,VWS V14.01,2013-07-12 15:16:00,
2013-07-12 11:20:00,68.9,58.3,30.07,ENE,71,6.0,17.0,69,0.00,,OVC012,0.00,304.00,VWS V14.01,2013-07-12 15:20:00,
2013-07-12 11:21:00,68.7,57.7,30.07,East,82,12.0,18.0,68,0.00,,BKN065,0.00,276.00,VWS V14.01,2013-07-12 15:21:00,
2013-07-12 11:25:00,68.6,57.6,30.07,ENE,63,8.0,18.0,68,0.00,,OVC012,0.00,267.00,VWS V14.01,2013-07-12 15:25:00,
2013-07-12 11:26:00,68.4,57.8,30.08,East,84,10.0,14.0,69,0.00,,BKN065,0.00,246.00,VWS V14.01,2013-07-12 15:26:00,
2013-07-12 11:30:00,68.4,57.4,30.08,NNE,33,12.0,16.0,68,0.00,,OVC012,0.00,243.00,VWS V14.01,2013-07-12 15:30:00,
2013-07-12 11:31:00,68.2,57.2,30.08,NE,55,12.0,16.0,68,0.00,,BKN065,0.00,232.00,VWS V14.01,2013-07-12 15:31:00,
2013-07-12 11:35:00,68.2,57.2,30.08,NE,54,10.0,16.0,68,0.00,,OVC012,0.00,229.00,VWS V14.01,2013-07-12 15:35:00,
2013-07-12 11:36:00,68.1,58.0,30.08,ENE,65,3.0,15.0,70,0.00,,BKN065,0.00,199.00,VWS V14.01,2013-07-12 15:36:00,
2013-07-12 11:40:00,68.2,58.0,30.08,North,360,3.0,15.0,70,0.00,,OVC012,0.00,199.00,VWS V14.01,2013-07-12 15:40:00,
2013-07-12 11:41:00,68.1,57.6,30.08,East,79,6.0,16.0,69,0.00,,BKN065,0.00,239.00,VWS V14.01,2013-07-12 15:41:00,
2013-07-12 11:45:00,68.1,57.6,30.08,East,82,6.0,16.0,69,0.00,,OVC012,0.00,250.00,VWS V14.01,2013-07-12 15:45:00,
2013-07-12 11:46:00,68.1,57.6,30.08,East,98,6.0,14.0,69,0.00,,BKN065,0.00,260.00,VWS V14.01,2013-07-12 15:46:00,
2013-07-12 11:50:00,68.1,58.0,30.08,ENE,74,5.0,14.0,70,0.00,,OVC012,0.00,265.00,VWS V14.01,2013-07-12 15:50:00,
2013-07-12 11:52:00,68.2,58.0,30.08,East,80,12.0,12.0,70,0.00,,BKN065,0.00,283.00,VWS V14.01,2013-07-12 15:52:00,
2013-07-12 11:55:00,68.2,57.7,30.08,East,90,13.0,15.0,69,0.00,,OVC012,0.00,283.00,VWS V14.01,2013-07-12 15:55:00,
2013-07-12 11:57:00,68.2,57.7,30.08,East,93,11.0,13.0,69,0.00,,BKN065,0.00,415.00,VWS V14.01,2013-07-12 15:57:00,
2013-07-12 12:00:00,68.2,57.7,30.08,East,96,9.0,13.0,69,0.00,,OVC012,0.00,415.00,VWS V14.01,2013-07-12 16:00:00,
2013-07-12 12:02:00,68.3,57.8,30.08,East,81,8.0,14.0,69,0.00,,BKN065,0.00,332.00,VWS V14.01,2013-07-12 16:02:00,
2013-07-12 12:05:00,68.3,57.3,30.08,East,95,9.0,14.0,68,0.00,,OVC012,0.00,332.00,VWS V14.01,2013-07-12 16:05:00,
2013-07-12 12:07:00,68.3,57.3,30.08,East,80,14.0,14.0,68,0.00,,BKN065,0.00,346.00,VWS V14.01,2013-07-12 16:07:00,
2013-07-12 12:10:00,68.3,57.3,30.08,East,81,11.0,14.0,68,0.00,,OVC012,0.00,346.00,VWS V14.01,2013-07-12 16:10:00,
2013-07-12 12:12:00,68.2,57.7,30.08,East,82,10.0,14.0,69,0.00,,BKN065,0.00,413.00,VWS V14.01,2013-07-12 16:12:00,
2013-07-12 12:15:00,68.2,57.7,30.08,ESE,106,9.0,14.0,69,0.00,,OVC012,0.00,413.00,VWS V14.01,2013-07-12 16:15:00,
2013-07-12 12:17:00,68.3,56.9,30.08,East,82,14.0,15.0,67,0.00,,BKN065,0.00,429.00,VWS V14.01,2013-07-12 16:17:00,
2013-07-12 12:20:00,68.3,56.9,30.08,East,88,12.0,15.0,67,0.00,,OVC012,0.00,432.00,VWS V14.01,2013-07-12 16:20:00,
2013-07-12 12:22:00,68.3,56.9,30.08,East,84,11.0,18.0,67,0.00,,BKN065,0.00,417.00,VWS V14.01,2013-07-12 16:22:00,
2013-07-12 12:25:00,68.3,56.9,30.08,East,96,9.0,18.0,67,0.00,,OVC012,0.00,448.00,VWS V14.01,2013-07-12 16:25:00,
2013-07-12 12:27:00,68.3,57.3,30.08,East,82,11.0,14.0,68,0.00,,BKN065,0.00,378.00,VWS V14.01,2013-07-12 16:27:00,
2013-07-12 12:30:00,68.3,57.3,30.08,ENE,60,10.0,14.0,68,0.00,,OVC012,0.00,378.00,VWS V14.01,2013-07-12 16:30:00,
2013-07-12 12:32:00,68.4,57.0,30.08,East,80,8.0,14.0,67,0.00,,BKN065,0.00,418.00,VWS V14.01,2013-07-12 16:32:00,
2013-07-12 12:35:00,68.4,57.0,30.08,East,80,8.0,14.0,67,0.00,,OVC012,0.00,418.00,VWS V14.01,2013-07-12 16:35:00,
2013-07-12 12:37:00,68.6,57.2,30.08,NE,53,8.0,12.0,67,0.00,,BKN065,0.00,367.00,VWS V14.01,2013-07-12 16:37:00,
2013-07-12 12:40:00,68.6,57.2,30.08,NE,53,8.0,12.0,67,0.00,,OVC012,0.00,367.00,VWS V14.01,2013-07-12 16:40:00,
2013-07-12 12:42:00,68.4,56.6,30.08,East,89,8.0,15.0,66,0.00,,BKN065,0.00,373.00,VWS V14.01,2013-07-12 16:42:00,
2013-07-12 12:45:00,68.4,56.6,30.08,East,89,8.0,15.0,66,0.00,,OVC012,0.00,373.00,VWS V14.01,2013-07-12 16:45:00,
2013-07-12 12:47:00,68.6,57.2,30.07,ENE,76,7.0,16.0,67,0.00,,BKN065,0.00,341.00,VWS V14.01,2013-07-12 16:47:00,
2013-07-12 12:50:00,68.6,57.2,30.07,ENE,76,7.0,16.0,67,0.00,,OVC012,0.00,341.00,VWS V14.01,2013-07-12 16:50:00,
2013-07-12 12:52:00,68.6,57.2,30.07,NE,54,6.0,6.0,67,0.00,,BKN065,0.00,380.00,VWS V14.01,2013-07-12 16:52:00,
2013-07-12 12:55:00,68.6,57.2,30.07,East,84,6.0,13.0,67,0.00,,OVC012,0.00,380.00,VWS V14.01,2013-07-12 16:55:00,
2013-07-12 12:58:00,68.7,57.7,30.08,NE,56,4.0,10.0,68,0.00,,BKN065,0.00,473.00,VWS V14.01,2013-07-12 16:58:00,
2013-07-12 13:00:00,68.7,57.7,30.08,East,85,8.0,12.0,68,0.00,,OVC012,0.00,473.00,VWS V14.01,2013-07-12 17:00:00,
2013-07-12 13:03:00,69.0,58.0,30.07,East,99,9.0,9.0,68,0.00,,BKN065,0.00,587.00,VWS V14.01,2013-07-12 17:03:00,
2013-07-12 13:05:00,68.9,57.5,30.07,NE,43,6.0,14.0,67,0.00,,OVC012,0.00,587.00,VWS V14.01,2013-07-12 17:05:00,
2013-07-12 13:08:00,69.9,58.0,30.07,ESE,102,15.0,18.0,66,0.00,,BKN065,0.00,1005.00,VWS V14.01,2013-07-12 17:08:00,
2013-07-12 13:10:00,69.8,58.4,30.07,East,94,7.0,12.0,67,0.00,,OVC012,0.00,1005.00,VWS V14.01,2013-07-12 17:10:00,
2013-07-12 13:14:00,70.1,58.2,30.08,ESE,121,7.0,12.0,66,0.00,,BKN065,0.00,541.00,VWS V14.01,2013-07-12 17:14:00,
2013-07-12 13:15:00,70.0,57.7,30.08,East,84,12.0,18.0,65,0.00,,OVC012,0.00,482.00,VWS V14.01,2013-07-12 17:15:00,
2013-07-12 13:19:00,70.6,58.7,30.08,East,82,8.0,13.0,66,0.00,,BKN065,0.00,501.00,VWS V14.01,2013-07-12 17:19:00,
2013-07-12 13:20:00,70.5,58.6,30.07,SE,126,8.0,13.0,66,0.00,,OVC012,0.00,524.00,VWS V14.01,2013-07-12 17:20:00,
2013-07-12 13:24:00,70.8,59.3,30.07,East,82,10.0,10.0,67,0.00,,BKN065,0.00,485.00,VWS V14.01,2013-07-12 17:24:00,
2013-07-12 13:25:00,70.7,59.2,30.08,East,96,7.0,13.0,67,0.00,,OVC012,0.00,494.00,VWS V14.01,2013-07-12 17:25:00,
2013-07-12 13:30:00,70.7,58.4,30.08,ENE,74,11.0,13.0,65,0.00,,BKN065,0.00,403.00,VWS V14.01,2013-07-12 17:30:00,
2013-07-12 13:35:00,70.3,57.1,30.08,ESE,107,7.0,15.0,63,0.00,,BKN065,0.00,387.00,VWS V14.01,2013-07-12 17:35:00,
2013-07-12 13:40:00,70.1,57.4,30.08,East,79,11.0,14.0,64,0.00,,BKN065,0.00,431.00,VWS V14.01,2013-07-12 17:40:00,
2013-07-12 13:45:00,70.3,57.6,30.08,East,94,13.0,13.0,64,0.00,,BKN065,0.00,448.00,VWS V14.01,2013-07-12 17:45:00,
2013-07-12 13:50:00,70.8,58.5,30.08,ENE,76,7.0,9.0,65,0.00,,BKN065,0.00,476.00,VWS V14.01,2013-07-12 17:50:00,
2013-07-12 13:55:00,70.8,57.6,30.08,East,84,11.0,15.0,63,0.00,,BKN065,0.00,427.00,VWS V14.01,2013-07-12 17:55:00,
2013-07-12 14:00:00,70.8,57.6,30.07,ENE,74,7.0,15.0,63,0.00,,BKN065,0.00,279.00,VWS V14.01,2013-07-12 18:00:00,
2013-07-12 14:05:00,70.7,57.5,30.07,NE,46,3.0,15.0,63,0.00,,OVC012,0.00,250.00,VWS V14.01,2013-07-12 18:05:00,
2013-07-12 14:06:00,71.2,58.8,30.07,East,88,5.0,10.0,65,0.00,,BKN065,0.00,700.00,VWS V14.01,2013-07-12 18:06:00,
2013-07-12 14:10:00,71.4,59.0,30.07,East,94,6.0,12.0,65,0.00,,OVC012,0.00,700.00,VWS V14.01,2013-07-12 18:10:00,
2013-07-12 14:11:00,71.9,58.6,30.07,ENE,78,4.0,10.0,63,0.00,,BKN065,0.00,789.00,VWS V14.01,2013-07-12 18:11:00,
2013-07-12 14:15:00,72.2,59.4,30.07,East,94,16.0,16.0,64,0.00,,OVC012,0.00,789.00,VWS V14.01,2013-07-12 18:15:00,
2013-07-12 14:16:00,72.1,58.4,30.07,East,84,11.0,18.0,62,0.00,,BKN065,0.00,316.00,VWS V14.01,2013-07-12 18:16:00,
2013-07-12 14:20:00,72.1,58.4,30.07,NE,38,5.0,18.0,62,0.00,,OVC012,0.00,610.00,VWS V14.01,2013-07-12 18:20:00,
2013-07-12 14:21:00,72.5,59.2,30.07,East,94,11.0,19.0,63,0.00,,BKN065,0.00,791.00,VWS V14.01,2013-07-12 18:21:00,
2013-07-12 14:25:00,72.7,58.9,30.07,East,99,12.0,19.0,62,0.00,,OVC012,0.00,791.00,VWS V14.01,2013-07-12 18:25:00,
2013-07-12 14:26:00,72.8,58.6,30.07,ENE,62,4.0,12.0,61,0.00,,BKN065,0.00,793.00,VWS V14.01,2013-07-12 18:26:00,
2013-07-12 14:30:00,72.9,58.7,30.07,East,98,12.0,19.0,61,0.00,,OVC012,0.00,796.00,VWS V14.01,2013-07-12 18:30:00,
2013-07-12 14:31:00,72.3,57.7,30.07,East,95,7.0,20.0,60,0.00,,BKN065,0.00,770.00,VWS V14.01,2013-07-12 18:31:00,
2013-07-12 14:35:00,72.3,58.1,30.07,East,90,11.0,20.0,61,0.00,,OVC012,0.00,772.00,VWS V14.01,2013-07-12 18:35:00,
2013-07-12 14:36:00,72.3,58.1,30.07,ENE,77,11.0,16.0,61,0.00,,BKN065,0.00,780.00,VWS V14.01,2013-07-12 18:36:00,
2013-07-12 14:40:00,72.3,57.7,30.07,East,96,11.0,16.0,60,0.00,,OVC012,0.00,773.00,VWS V14.01,2013-07-12 18:40:00,
2013-07-12 14:42:00,72.5,58.3,30.07,NE,42,13.0,17.0,61,0.00,,BKN065,0.00,656.00,VWS V14.01,2013-07-12 18:42:00,
2013-07-12 14:45:00,72.5,58.3,30.07,NE,49,10.0,17.0,61,0.00,,OVC012,0.00,656.00,VWS V14.01,2013-07-12 18:45:00,
2013-07-12 14:47:00,72.7,57.1,30.07,ENE,58,7.0,15.0,58,0.00,,BKN065,0.00,670.00,VWS V14.01,2013-07-12 18:47:00,
2013-07-12 14:50:00,72.7,57.1,30.07,ENE,58,7.0,15.0,58,0.00,,OVC012,0.00,670.00,VWS V14.01,2013-07-12 18:50:00,
2013-07-12 14:52:00,72.6,57.9,30.07,SE,132,5.0,16.0,60,0.00,,BKN065,0.00,765.00,VWS V14.01,2013-07-12 18:52:00,
2013-07-12 14:55:00,72.6,57.9,30.07,SE,132,5.0,16.0,60,0.00,,OVC012,0.00,765.00,VWS V14.01,2013-07-12 18:55:00,
2013-07-12 14:57:00,72.9,57.8,30.08,ENE,57,5.0,14.0,59,0.00,,BKN065,0.00,749.00,VWS V14.01,2013-07-12 18:57:00,
2013-07-12 15:00:00,72.9,57.8,30.08,ENE,57,5.0,14.0,59,0.00,,OVC012,0.00,749.00,VWS V14.01,2013-07-12 19:00:00,
2013-07-12 15:02:00,73.1,57.9,30.07,ENE,60,12.0,17.0,59,0.00,,BKN065,0.00,749.00,VWS V14.01,2013-07-12 19:02:00,
2013-07-12 15:05:00,73.1,57.9,30.07,ENE,60,12.0,17.0,59,0.00,,OVC012,0.00,749.00,VWS V14.01,2013-07-12 19:05:00,
2013-07-12 15:07:00,73.0,57.8,30.07,ESE,102,11.0,11.0,59,0.00,,BKN065,0.00,744.00,VWS V14.01,2013-07-12 19:07:00,
2013-07-12 15:10:00,73.0,57.4,30.07,ESE,113,8.0,17.0,58,0.00,,OVC012,0.00,744.00,VWS V14.01,2013-07-12 19:10:00,
2013-07-12 15:12:00,73.3,58.1,30.07,ENE,76,6.0,6.0,59,0.00,,BKN065,0.00,666.00,VWS V14.01,2013-07-12 19:12:00,
2013-07-12 15:15:00,73.3,58.1,30.08,NE,41,6.0,15.0,59,0.00,,OVC012,0.00,666.00,VWS V14.01,2013-07-12 19:15:00,
2013-07-12 15:17:00,73.7,58.5,30.08,ENE,78,6.0,12.0,59,0.00,,BKN065,0.00,647.00,VWS V14.01,2013-07-12 19:17:00,
2013-07-12 15:20:00,73.6,58.4,30.08,East,82,12.0,13.0,59,0.00,,OVC012,0.00,629.00,VWS V14.01,2013-07-12 19:20:00,
2013-07-12 15:23:00,73.6,58.4,30.07,East,82,12.0,13.0,59,0.00,,BKN065,0.00,768.00,VWS V14.01,2013-07-12 19:23:00,
2013-07-12 15:25:00,73.5,58.3,30.07,ENE,67,8.0,17.0,59,0.00,,OVC012,0.00,782.00,VWS V14.01,2013-07-12 19:25:00,
2013-07-12 15:28:00,73.4,56.3,30.07,NNE,25,5.0,8.0,55,0.00,,BKN065,0.00,686.00,VWS V14.01,2013-07-12 19:28:00,
2013-07-12 15:30:00,73.4,56.3,30.08,NE,37,8.0,15.0,55,0.00,,OVC012,0.00,696.00,VWS V14.01,2013-07-12 19:30:00,
2013-07-12 15:33:00,73.8,57.6,30.08,NE,56,8.0,13.0,57,0.00,,BKN065,0.00,721.00,VWS V14.01,2013-07-12 19:33:00,
2013-07-12 15:35:00,73.7,58.5,30.07,NE,47,5.0,9.0,59,0.00,,OVC012,0.00,715.00,VWS V14.01,2013-07-12 19:35:00,
2013-07-12 15:38:00,73.7,57.0,30.07,East,82,10.0,10.0,56,0.00,,BKN065,0.00,635.00,VWS V14.01,2013-07-12 19:38:00,
2013-07-12 15:40:00,73.7,58.0,30.07,ENE,68,5.0,13.0,58,0.00,,OVC012,0.00,666.00,VWS V14.01,2013-07-12 19:40:00,
2013-07-12 15:44:00,73.7,56.5,30.07,ESE,103,12.0,15.0,55,0.00,,BKN065,0.00,717.00,VWS V14.01,2013-07-12 19:44:00,
2013-07-12 15:45:00,73.7,56.0,30.07,East,98,15.0,17.0,54,0.00,,OVC012,0.00,675.00,VWS V14.01,2013-07-12 19:45:00,
2013-07-12 15:49:00,73.7,56.0,30.07,ENE,66,6.0,12.0,54,0.00,,BKN065,0.00,821.00,VWS V14.01,2013-07-12 19:49:00,
2013-07-12 15:50:00,73.8,55.1,30.08,East,100,11.0,19.0,52,0.00,,OVC012,0.00,770.00,VWS V14.01,2013-07-12 19:50:00,
2013-07-12 15:54:00,73.9,56.2,30.08,East,82,6.0,11.0,54,0.00,,BKN065,0.00,329.00,VWS V14.01,2013-07-12 19:54:00,
2013-07-12 15:55:00,73.8,56.1,30.07,East,95,11.0,15.0,54,0.00,,OVC012,0.00,422.00,VWS V14.01,2013-07-12 19:55:00,
2013-07-12 16:00:00,73.8,56.6,30.07,NE,44,9.0,11.0,55,0.00,,BKN065,0.00,315.00,VWS V14.01,2013-07-12 20:00:00,
2013-07-12 16:05:00,73.2,55.6,30.07,ENE,62,6.0,13.0,54,0.00,,BKN065,0.00,367.00,VWS V14.01,2013-07-12 20:05:00,
2013-07-12 16:10:00,73.2,56.1,30.07,ENE,59,6.0,10.0,55,0.00,,BKN065,0.00,364.00,VWS V14.01,2013-07-12 20:10:00,
2013-07-12 16:15:00,73.2,56.6,30.07,East,89,3.0,11.0,56,0.00,,BKN065,0.00,334.00,VWS V14.01,2013-07-12 20:15:00,
2013-07-12 16:20:00,73.3,56.7,30.07,ENE,76,6.0,10.0,56,0.00,,BKN065,0.00,339.00,VWS V14.01,2013-07-12 20:20:00,
2013-07-12 16:25:00,73.2,57.1,30.07,ENE,74,6.0,11.0,57,0.00,,BKN065,0.00,352.00,VWS V14.01,2013-07-12 20:25:00,
2013-07-12 16:30:00,73.2,56.6,30.07,ENE,76,6.0,11.0,56,0.00,,OVC012,0.00,366.00,VWS V14.01,2013-07-12 20:30:00,
2013-07-12 16:31:00,73.3,57.7,30.07,ENE,74,3.0,6.0,58,0.00,,BKN065,0.00,387.00,VWS V14.01,2013-07-12 20:31:00,
2013-07-12 16:35:00,73.4,57.3,30.07,East,98,8.0,8.0,57,0.00,,OVC012,0.00,410.00,VWS V14.01,2013-07-12 20:35:00,
2013-07-12 16:36:00,73.4,57.3,30.08,ENE,62,7.0,8.0,57,0.00,,BKN065,0.00,374.00,VWS V14.01,2013-07-12 20:36:00,
2013-07-12 16:40:00,73.3,56.7,30.07,East,87,5.0,8.0,56,0.00,,OVC012,0.00,346.00,VWS V14.01,2013-07-12 20:40:00,
2013-07-12 16:41:00,73.3,58.1,30.08,ENE,75,6.0,9.0,59,0.00,,BKN065,0.00,360.00,VWS V14.01,2013-07-12 20:41:00,
2013-07-12 16:45:00,73.2,57.1,30.08,NE,51,6.0,9.0,57,0.00,,OVC012,0.00,360.00,VWS V14.01,2013-07-12 20:45:00,
2013-07-12 16:46:00,73.0,56.9,30.07,East,93,11.0,13.0,57,0.00,,BKN065,0.00,396.00,VWS V14.01,2013-07-12 20:46:00,
2013-07-12 16:50:00,73.0,56.9,30.07,ENE,71,7.0,13.0,57,0.00,,OVC012,0.00,401.00,VWS V14.01,2013-07-12 20:50:00,
2013-07-12 16:52:00,72.8,57.2,30.07,East,87,7.0,14.0,58,0.00,,BKN065,0.00,343.00,VWS V14.01,2013-07-12 20:52:00,
2013-07-12 16:55:00,72.8,57.2,30.07,NE,55,7.0,14.0,58,0.00,,OVC012,0.00,341.00,VWS V14.01,2013-07-12 20:55:00,
2013-07-12 16:57:00,72.7,56.6,30.08,East,85,10.0,12.0,57,0.00,,BKN065,0.00,279.00,VWS V14.01,2013-07-12 20:57:00,
2013-07-12 17:00:00,72.7,56.6,30.08,East,90,12.0,12.0,57,0.00,,OVC012,0.00,269.00,VWS V14.01,2013-07-12 21:00:00,
2013-07-12 17:02:00,72.4,56.8,30.08,ESE,120,13.0,14.0,58,0.00,,BKN065,0.00,239.00,VWS V14.01,2013-07-12 21:02:00,
2013-07-12 17:05:00,72.4,56.8,30.08,ESE,120,13.0,14.0,58,0.00,,OVC012,0.00,239.00,VWS V14.01,2013-07-12 21:05:00,
2013-07-12 17:08:00,72.4,57.3,30.08,ENE,71,5.0,6.0,59,0.00,,BKN065,0.00,292.00,VWS V14.01,2013-07-12 21:08:00,
2013-07-12 17:10:00,72.4,57.3,30.08,East,101,6.0,13.0,59,0.00,,OVC012,0.00,294.00,VWS V14.01,2013-07-12 21:10:00,
2013-07-12 17:13:00,72.4,57.3,30.08,East,88,5.0,8.0,59,0.00,,BKN065,0.00,243.00,VWS V14.01,2013-07-12 21:13:00,
2013-07-12 17:15:00,72.4,57.3,30.08,ENE,71,7.0,7.0,59,0.00,,OVC012,0.00,276.00,VWS V14.01,2013-07-12 21:15:00,
2013-07-12 17:18:00,72.1,57.5,30.09,ENE,78,1.0,7.0,60,0.00,,BKN065,0.00,232.00,VWS V14.01,2013-07-12 21:18:00,
2013-07-12 17:20:00,72.2,57.1,30.09,East,95,6.0,8.0,59,0.00,,OVC012,0.00,232.00,VWS V14.01,2013-07-12 21:20:00,
2013-07-12 17:23:00,71.9,56.8,30.09,ENE,76,5.0,11.0,59,0.00,,BKN065,0.00,272.00,VWS V14.01,2013-07-12 21:23:00,
2013-07-12 17:25:00,72.0,56.4,30.09,East,81,6.0,11.0,58,0.00,,OVC012,0.00,255.00,VWS V14.01,2013-07-12 21:25:00,
2013-07-12 17:29:00,71.9,56.8,30.09,East,86,6.0,12.0,59,0.00,,BKN065,0.00,243.00,VWS V14.01,2013-07-12 21:29:00,
2013-07-12 17:30:00,71.9,57.3,30.08,East,88,6.0,11.0,60,0.00,,OVC012,0.00,276.00,VWS V14.01,2013-07-12 21:30:00,
2013-07-12 17:34:00,71.6,56.5,30.08,East,92,6.0,9.0,59,0.00,,BKN065,0.00,199.00,VWS V14.01,2013-07-12 21:34:00,
2013-07-12 17:35:00,71.7,56.6,30.08,ENE,74,8.0,12.0,59,0.00,,OVC012,0.00,207.00,VWS V14.01,2013-07-12 21:35:00,
2013-07-12 17:39:00,71.4,57.3,30.08,East,88,6.0,8.0,61,0.00,,BKN065,0.00,188.00,VWS V14.01,2013-07-12 21:39:00,
2013-07-12 17:40:00,71.5,56.4,30.09,East,82,5.0,11.0,59,0.00,,OVC012,0.00,188.00,VWS V14.01,2013-07-12 21:40:00,
2013-07-12 17:44:00,71.3,56.2,30.08,NE,56,7.0,8.0,59,0.00,,BKN065,0.00,388.00,VWS V14.01,2013-07-12 21:44:00,
2013-07-12 17:45:00,71.3,57.6,30.09,ENE,73,1.0,9.0,62,0.00,,OVC012,0.00,221.00,VWS V14.01,2013-07-12 21:45:00,
2013-07-12 17:49:00,71.2,56.2,30.09,ESE,108,7.0,10.0,59,0.00,,BKN065,0.00,162.00,VWS V14.01,2013-07-12 21:49:00,
2013-07-12 17:50:00,71.3,56.2,30.08,East,80,5.0,8.0,59,0.00,,OVC012,0.00,176.00,VWS V14.01,2013-07-12 21:50:00,
2013-07-12 17:54:00,71.0,56.0,30.09,ENE,65,4.0,6.0,59,0.00,,BKN065,0.00,151.00,VWS V14.01,2013-07-12 21:54:00,
2013-07-12 17:55:00,71.1,55.6,30.08,NE,54,1.0,11.0,58,0.00,,OVC012,0.00,156.00,VWS V14.01,2013-07-12 21:55:00,
2013-07-12 17:59:00,70.9,55.9,30.08,NE,49,6.0,8.0,59,0.00,,BKN065,0.00,135.00,VWS V14.01,2013-07-12 21:59:00,
2013-07-12 18:00:00,71.0,55.5,30.09,NE,56,4.0,8.0,58,0.00,,OVC012,0.00,139.00,VWS V14.01,2013-07-12 22:00:00,
2013-07-12 18:04:00,70.7,55.7,30.08,East,99,6.0,11.0,59,0.00,,BKN065,0.00,127.00,VWS V14.01,2013-07-12 22:04:00,
2013-07-12 18:05:00,70.8,55.8,30.08,ENE,74,11.0,12.0,59,0.00,,OVC012,0.00,130.00,VWS V14.01,2013-07-12 22:05:00,
2013-07-12 18:10:00,70.5,56.0,30.08,East,92,8.0,8.0,60,0.00,,BKN065,0.00,118.00,VWS V14.01,2013-07-12 22:10:00,
2013-07-12 18:15:00,70.4,55.4,30.08,NE,55,10.0,12.0,59,0.00,,BKN065,0.00,113.00,VWS V14.01,2013-07-12 22:15:00,
2013-07-12 18:20:00,70.3,55.3,30.08,ENE,67,7.0,8.0,59,0.00,,BKN065,0.00,158.00,VWS V14.01,2013-07-12 22:20:00,
2013-07-12 18:25:00,70.2,55.2,30.08,East,79,8.0,12.0,59,0.00,,BKN065,0.00,107.00,VWS V14.01,2013-07-12 22:25:00,
2013-07-12 18:30:00,70.1,55.6,30.08,ENE,58,5.0,12.0,60,0.00,,OVC012,0.00,100.00,VWS V14.01,2013-07-12 22:30:00,
2013-07-12 18:31:00,70.0,55.5,30.08,ENE,67,5.0,7.0,60,0.00,,BKN065,0.00,93.00,VWS V14.01,2013-07-12 22:31:00,
2013-07-12 18:35:00,69.9,55.4,30.08,East,86,4.0,7.0,60,0.00,,OVC012,0.00,91.00,VWS V14.01,2013-07-12 22:35:00,
2013-07-12 18:36:00,69.9,55.4,30.09,NE,48,4.0,7.0,60,0.00,,BKN065,0.00,90.00,VWS V14.01,2013-07-12 22:36:00,
2013-07-12 18:40:00,69.8,55.3,30.09,ENE,59,4.0,7.0,60,0.00,,OVC012,0.00,88.00,VWS V14.01,2013-07-12 22:40:00,
2013-07-12 18:42:00,69.7,55.7,30.09,ENE,58,3.0,8.0,61,0.00,,BKN065,0.00,81.00,VWS V14.01,2013-07-12 22:42:00,
2013-07-12 18:45:00,69.7,55.7,30.09,ENE,58,3.0,8.0,61,0.00,,OVC012,0.00,81.00,VWS V14.01,2013-07-12 22:45:00,
2013-07-12 18:47:00,69.6,55.6,30.09,ENE,70,4.0,8.0,61,0.00,,BKN065,0.00,76.00,VWS V14.01,2013-07-12 22:47:00,
2013-07-12 18:50:00,69.6,55.6,30.09,ENE,70,4.0,8.0,61,0.00,,OVC012,0.00,76.00,VWS V14.01,2013-07-12 22:50:00,
2013-07-12 18:52:00,69.5,55.5,30.09,ENE,75,3.0,6.0,61,0.00,,BKN065,0.00,70.00,VWS V14.01,2013-07-12 22:52:00,
2013-07-12 18:55:00,69.5,55.5,30.09,ENE,75,3.0,6.0,61,0.00,,OVC012,0.00,70.00,VWS V14.01,2013-07-12 22:55:00,
2013-07-12 18:57:00,69.4,55.8,30.09,NE,46,2.0,2.0,62,0.00,,BKN065,0.00,63.00,VWS V14.01,2013-07-12 22:57:00,
2013-07-12 19:00:00,69.4,55.8,30.10,NE,46,2.0,6.0,62,0.00,,OVC012,0.00,63.00,VWS V14.01,2013-07-12 23:00:00,
2013-07-12 19:02:00,69.3,55.7,30.09,ENE,73,3.0,3.0,62,0.00,,BKN065,0.00,56.00,VWS V14.01,2013-07-12 23:02:00,
2013-07-12 19:05:00,69.3,55.7,30.09,ENE,74,2.0,6.0,62,0.00,,OVC012,0.00,56.00,VWS V14.01,2013-07-12 23:05:00,
2013-07-12 19:07:00,69.2,56.5,30.09,ENE,77,2.0,3.0,64,0.00,,BKN065,0.00,54.00,VWS V14.01,2013-07-12 23:07:00,
2013-07-12 19:10:00,69.2,56.1,30.09,ENE,76,2.0,6.0,63,0.00,,OVC012,0.00,54.00,VWS V14.01,2013-07-12 23:10:00,
2013-07-12 19:12:00,69.0,55.9,30.09,East,90,2.0,2.0,63,0.00,,BKN065,0.00,49.00,VWS V14.01,2013-07-12 23:12:00,
2013-07-12 19:15:00,69.0,55.9,30.09,East,90,1.0,5.0,63,0.00,,OVC012,0.00,49.00,VWS V14.01,2013-07-12 23:15:00,
2013-07-12 19:18:00,69.0,56.3,30.10,East,90,0.0,1.0,64,0.00,,BKN065,0.00,39.00,VWS V14.01,2013-07-12 23:18:00,
2013-07-12 19:20:00,69.0,56.3,30.10,East,90,0.0,4.0,64,0.00,,OVC012,0.00,40.00,VWS V14.01,2013-07-12 23:20:00,
2013-07-12 19:23:00,68.9,55.8,30.09,East,90,5.0,5.0,63,0.00,,BKN065,0.00,39.00,VWS V14.01,2013-07-12 23:23:00,
2013-07-12 19:25:00,68.9,55.8,30.09,East,90,5.0,5.0,63,0.00,,OVC012,0.00,39.00,VWS V14.01,2013-07-12 23:25:00,
2013-07-12 19:29:00,68.9,56.2,30.09,East,89,2.0,5.0,64,0.00,,BKN065,0.00,39.00,VWS V14.01,2013-07-12 23:29:00,
2013-07-12 19:30:00,68.9,56.2,30.09,East,89,4.0,5.0,64,0.00,,OVC012,0.00,39.00,VWS V14.01,2013-07-12 23:30:00,
2013-07-12 19:34:00,68.8,56.1,30.09,East,90,4.0,4.0,64,0.00,,BKN065,0.00,35.00,VWS V14.01,2013-07-12 23:34:00,
2013-07-12 19:35:00,68.8,56.1,30.09,East,89,3.0,5.0,64,0.00,,OVC012,0.00,37.00,VWS V14.01,2013-07-12 23:35:00,
2013-07-12 19:40:00,68.7,56.5,30.10,East,89,3.0,4.0,65,0.00,,BKN065,0.00,35.00,VWS V14.01,2013-07-12 23:40:00,
2013-07-12 19:45:00,68.6,56.4,30.10,East,90,4.0,4.0,65,0.00,,BKN065,0.00,32.00,VWS V14.01,2013-07-12 23:45:00,
2013-07-12 19:50:00,68.6,56.4,30.10,East,89,3.0,4.0,65,0.00,,BKN065,0.00,23.00,VWS V14.01,2013-07-12 23:50:00,
2013-07-12 19:55:00,68.5,56.3,30.10,East,90,2.0,5.0,65,0.00,,BKN065,0.00,18.00,VWS V14.01,2013-07-12 23:55:00,
2013-07-12 20:00:00,68.4,56.6,30.10,East,89,0.0,4.0,66,0.00,,BKN065,0.00,16.00,VWS V14.01,2013-07-13 00:00:00,
2013-07-12 20:05:00,68.4,57.0,30.10,East,89,2.0,4.0,67,0.00,,OVC012,0.00,14.00,VWS V14.01,2013-07-13 00:05:00,
2013-07-12 20:06:00,68.3,56.5,30.10,East,89,0.0,4.0,66,0.00,,BKN065,0.00,11.00,VWS V14.01,2013-07-13 00:06:00,
2013-07-12 20:10:00,68.3,56.5,30.10,East,90,1.0,4.0,66,0.00,,OVC012,0.00,9.00,VWS V14.01,2013-07-13 00:10:00,
2013-07-12 20:11:00,68.3,56.9,30.10,East,89,0.0,2.0,67,0.00,,BKN065,0.00,5.00,VWS V14.01,2013-07-13 00:11:00,
2013-07-12 20:15:00,68.3,56.9,30.10,East,89,0.0,2.0,67,0.00,,OVC012,0.00,5.00,VWS V14.01,2013-07-13 00:15:00,
2013-07-12 20:17:00,68.2,56.8,30.10,East,89,0.0,1.0,67,0.00,,BKN065,0.00,0.00,VWS V14.01,2013-07-13 00:17:00,
2013-07-12 20:20:00,68.2,56.8,30.10,East,89,0.0,1.0,67,0.00,,OVC012,0.00,0.00,VWS V14.01,2013-07-13 00:20:00,
2013-07-12 20:22:00,68.2,57.2,30.11,East,89,1.0,2.0,68,0.00,,BKN065,0.00,0.00,VWS V14.01,2013-07-13 00:22:00,
2013-07-12 20:25:00,68.1,57.2,30.11,East,90,1.0,2.0,68,0.00,,OVC012,0.00,0.00,VWS V14.01,2013-07-13 00:25:00,
2013-07-12 20:27:00,68.0,57.1,30.10,East,89,0.0,4.0,68,0.00,,BKN065,0.00,0.00,VWS V14.01,2013-07-13 00:27:00,
2013-07-12 20:30:00,68.0,57.1,30.10,East,89,0.0,4.0,68,0.00,,OVC012,0.00,0.00,VWS V14.01,2013-07-13 00:30:00,
2013-07-12 20:32:00,67.9,57.0,30.10,East,89,0.0,0.0,68,0.00,,BKN065,0.00,0.00,VWS V14.01,2013-07-13 00:32:00,
2013-07-12 20:35:00,67.9,57.0,30.10,East,90,0.0,1.0,68,0.00,,OVC012,0.00,0.00,VWS V14.01,2013-07-13 00:35:00,
2013-07-12 20:37:00,67.7,57.2,30.10,East,89,1.0,2.0,69,0.00,,BKN065,0.00,0.00,VWS V14.01,2013-07-13 00:37:00,
2013-07-12 20:40:00,67.7,57.2,30.10,East,89,1.0,2.0,69,0.00,,OVC012,0.00,0.00,VWS V14.01,2013-07-13 00:40:00,
2013-07-12 20:43:00,67.6,57.5,30.10,East,89,0.0,1.0,70,0.00,,BKN065,0.00,0.00,VWS V14.01,2013-07-13 00:43:00,
2013-07-12 20:45:00,67.6,57.1,30.10,East,89,1.0,2.0,69,0.00,,OVC012,0.00,0.00,VWS V14.01,2013-07-13 00:45:00,
2013-07-12 20:48:00,67.3,57.2,30.11,East,89,2.0,2.0,70,0.00,,BKN065,0.00,0.00,VWS V14.01,2013-07-13 00:48:00,
2013-07-12 20:50:00,67.4,57.3,30.10,East,89,0.0,3.0,70,0.00,,OVC012,0.00,0.00,VWS V14.01,2013-07-13 00:50:00,
2013-07-12 20:54:00,67.2,57.5,30.10,East,90,0.0,2.0,71,0.00,,BKN065,0.00,0.00,VWS V14.01,2013-07-13 00:54:00,
2013-07-12 20:55:00,67.2,57.5,30.10,East,90,1.0,3.0,71,0.00,,OVC012,0.00,0.00,VWS V14.01,2013-07-13 00:55:00,
2013-07-12 20:59:00,67.1,57.4,30.11,East,90,0.0,2.0,71,0.00,,BKN065,0.00,0.00,VWS V14.01,2013-07-13 00:59:00,
2013-07-12 21:00:00,67.1,57.4,30.11,East,90,0.0,2.0,71,0.00,,OVC012,0.00,0.00,VWS V14.01,2013-07-13 01:00:00,
2013-07-12 21:04:00,67.0,57.3,30.11,East,89,0.0,0.0,71,0.00,,BKN065,0.00,0.00,VWS V14.01,2013-07-13 01:04:00,
2013-07-12 21:05:00,67.0,57.3,30.11,East,89,0.0,2.0,71,0.00,,OVC012,0.00,0.00,VWS V14.01,2013-07-13 01:05:00,
2013-07-12 21:09:00,67.0,57.3,30.11,East,90,0.0,1.0,71,0.00,,BKN065,0.00,0.00,VWS V14.01,2013-07-13 01:09:00,
2013-07-12 21:10:00,67.0,57.3,30.11,East,90,1.0,1.0,71,0.00,,OVC012,0.00,0.00,VWS V14.01,2013-07-13 01:10:00,
2013-07-12 21:15:00,66.9,57.2,30.12,East,89,0.0,1.0,71,0.00,,BKN065,0.00,0.00,VWS V14.01,2013-07-13 01:15:00,
2013-07-12 21:20:00,66.9,57.6,30.12,East,89,1.0,1.0,72,0.00,,BKN065,0.00,0.00,VWS V14.01,2013-07-13 01:20:00,
2013-07-12 21:25:00,66.6,57.3,30.12,East,89,2.0,4.0,72,0.00,,BKN065,0.00,0.00,VWS V14.01,2013-07-13 01:25:00,
2013-07-12 21:30:00,66.8,56.3,30.11,ESE,108,4.0,6.0,69,0.00,,BKN065,0.00,0.00,VWS V14.01,2013-07-13 01:30:00,
2013-07-12 21:35:00,67.0,56.5,30.12,ESE,113,6.0,9.0,69,0.00,,BKN065,0.00,0.00,VWS V14.01,2013-07-13 01:35:00,
2013-07-12 21:40:00,67.0,56.5,30.12,ESE,112,4.0,6.0,69,0.00,,BKN065,0.00,0.00,VWS V14.01,2013-07-13 01:40:00,
2013-07-12 21:45:00,67.0,56.5,30.12,ESE,112,4.0,6.0,69,0.00,,OVC012,0.00,0.00,VWS V14.01,2013-07-13 01:45:00,
2013-07-12 21:46:00,67.0,56.5,30.12,ESE,113,4.0,7.0,69,0.00,,BKN065,0.00,0.00,VWS V14.01,2013-07-13 01:46:00,
2013-07-12 21:50:00,67.0,56.5,30.12,ESE,112,5.0,7.0,69,0.00,,OVC012,0.00,0.00,VWS V14.01,2013-07-13 01:50:00,
2013-07-12 21:51:00,67.0,56.5,30.12,ESE,107,4.0,5.0,69,0.00,,BKN065,0.00,0.00,VWS V14.01,2013-07-13 01:51:00,
2013-07-12 21:55:00,67.0,56.5,30.12,ESE,107,5.0,6.0,69,0.00,,OVC012,0.00,0.00,VWS V14.01,2013-07-13 01:55:00,
2013-07-12 21:56:00,67.0,56.5,30.12,ESE,107,2.0,5.0,69,0.00,,BKN065,0.00,0.00,VWS V14.01,2013-07-13 01:56:00,
2013-07-12 22:00:00,67.0,56.5,30.12,East,92,2.0,6.0,69,0.00,,OVC012,0.00,0.00,VWS V14.01,2013-07-13 02:00:00,
2013-07-12 22:02:00,66.9,56.4,30.12,ESE,105,5.0,6.0,69,0.00,,BKN065,0.00,0.00,VWS V14.01,2013-07-13 02:02:00,
2013-07-12 22:05:00,66.9,56.4,30.12,ESE,105,5.0,6.0,69,0.00,,OVC012,0.00,0.00,VWS V14.01,2013-07-13 02:05:00,
2013-07-12 22:07:00,66.9,56.4,30.12,ESE,104,4.0,6.0,69,0.00,,BKN065,0.00,0.00,VWS V14.01,2013-07-13 02:07:00,
2013-07-12 22:10:00,66.9,56.4,30.12,ESE,104,2.0,6.0,69,0.00,,OVC012,0.00,0.00,VWS V14.01,2013-07-13 02:10:00,
2013-07-12 22:12:00,66.9,56.8,30.12,ESE,112,5.0,8.0,70,0.00,,BKN065,0.00,0.00,VWS V14.01,2013-07-13 02:12:00,
2013-07-12 22:15:00,66.9,56.8,30.12,ESE,112,5.0,8.0,70,0.00,,OVC012,0.00,0.00,VWS V14.01,2013-07-13 02:15:00,
2013-07-12 22:17:00,66.8,56.7,30.12,ESE,112,2.0,5.0,70,0.00,,BKN065,0.00,0.00,VWS V14.01,2013-07-13 02:17:00,
2013-07-12 22:20:00,66.8,56.7,30.12,ESE,112,2.0,5.0,70,0.00,,OVC012,0.00,0.00,VWS V14.01,2013-07-13 02:20:00,
2013-07-12 22:22:00,66.6,56.9,30.12,ESE,111,2.0,4.0,71,0.00,,BKN065,0.00,0.00,VWS V14.01,2013-07-13 02:22:00,
2013-07-12 22:25:00,66.6,56.9,30.12,ESE,111,4.0,6.0,71,0.00,,OVC012,0.00,0.00,VWS V14.01,2013-07-13 02:25:00,
2013-07-12 22:27:00,66.5,56.8,30.12,ESE,111,4.0,4.0,71,0.00,,BKN065,0.00,0.00,VWS V14.01,2013-07-13 02:27:00,
2013-07-12 22:30:00,66.5,56.8,30.12,ESE,112,2.0,5.0,71,0.00,,OVC012,0.00,0.00,VWS V14.01,2013-07-13 02:30:00,
2013-07-12 22:33:00,66.5,56.8,30.12,ESE,112,2.0,4.0,71,0.00,,BKN065,0.00,0.00,VWS V14.01,2013-07-13 02:33:00,
2013-07-12 22:35:00,66.5,56.8,30.12,ESE,112,2.0,6.0,71,0.00,,OVC012,0.00,0.00,VWS V14.01,2013-07-13 02:35:00,
2013-07-12 22:38:00,66.4,56.7,30.13,ESE,113,1.0,2.0,71,0.00,,BKN065,0.00,0.00,VWS V14.01,2013-07-13 02:38:00,
2013-07-12 22:40:00,66.4,56.7,30.12,ESE,112,1.0,4.0,71,0.00,,OVC012,0.00,0.00,VWS V14.01,2013-07-13 02:40:00,
2013-07-12 22:43:00,66.4,56.7,30.12,ESE,112,4.0,5.0,71,0.00,,BKN065,0.00,0.00,VWS V14.01,2013-07-13 02:43:00,
2013-07-12 22:45:00,66.4,56.7,30.12,ESE,112,4.0,4.0,71,0.00,,OVC012,0.00,0.00,VWS V14.01,2013-07-13 02:45:00,
2013-07-12 22:49:00,66.5,56.8,30.13,ESE,112,2.0,2.0,71,0.00,,BKN065,0.00,0.00,VWS V14.01,2013-07-13 02:49:00,
2013-07-12 22:50:00,66.5,56.8,30.13,ESE,112,2.0,5.0,71,0.00,,OVC012,0.00,0.00,VWS V14.01,2013-07-13 02:50:00,
2013-07-12 22:54:00,66.5,56.8,30.14,ESE,112,1.0,4.0,71,0.00,,BKN065,0.00,0.00,VWS V14.01,2013-07-13 02:54:00,
2013-07-12 22:55:00,66.5,56.8,30.13,ESE,112,1.0,4.0,71,0.00,,OVC012,0.00,0.00,VWS V14.01,2013-07-13 02:55:00,
2013-07-12 22:59:00,66.5,57.2,30.14,ESE,113,1.0,2.0,72,0.00,,BKN065,0.00,0.00,VWS V14.01,2013-07-13 02:59:00,
2013-07-12 23:00:00,66.5,57.2,30.13,ESE,112,0.0,4.0,72,0.00,,OVC012,0.00,0.00,VWS V14.01,2013-07-13 03:00:00,
2013-07-12 23:04:00,66.4,57.1,30.13,ESE,112,1.0,4.0,72,0.00,,BKN065,0.00,0.00,VWS V14.01,2013-07-13 03:04:00,
2013-07-12 23:05:00,66.4,57.1,30.14,ESE,112,1.0,2.0,72,0.00,,OVC012,0.00,0.00,VWS V14.01,2013-07-13 03:05:00,
2013-07-12 23:10:00,66.3,57.0,30.14,ESE,112,0.0,1.0,72,0.00,,BKN065,0.00,0.00,VWS V14.01,2013-07-13 03:10:00,
2013-07-12 23:15:00,66.3,57.4,30.14,ESE,112,1.0,2.0,73,0.00,,BKN065,0.00,0.00,VWS V14.01,2013-07-13 03:15:00,
2013-07-12 23:20:00,66.3,57.4,30.14,ESE,112,0.0,2.0,73,0.00,,BKN065,0.00,0.00,VWS V14.01,2013-07-13 03:20:00,
2013-07-12 23:25:00,66.2,57.3,30.14,ESE,112,1.0,2.0,73,0.00,,OVC012,0.00,0.00,VWS V14.01,2013-07-13 03:25:00,
2013-07-12 23:26:00,66.2,57.3,30.14,ESE,112,0.0,2.0,73,0.00,,BKN065,0.00,0.00,VWS V14.01,2013-07-13 03:26:00,
2013-07-12 23:30:00,66.2,57.3,30.14,ESE,112,0.0,2.0,73,0.00,,OVC012,0.00,0.00,VWS V14.01,2013-07-13 03:30:00,
2013-07-12 23:31:00,66.0,57.1,30.14,ESE,112,0.0,1.0,73,0.00,,BKN065,0.00,0.00,VWS V14.01,2013-07-13 03:31:00,
2013-07-12 23:35:00,66.0,57.1,30.14,ESE,112,0.0,1.0,73,0.00,,OVC012,0.00,0.00,VWS V14.01,2013-07-13 03:35:00,
2013-07-12 23:36:00,65.9,57.4,30.14,ESE,112,0.0,1.0,74,0.00,,BKN065,0.00,0.00,VWS V14.01,2013-07-13 03:36:00,
2013-07-12 23:40:00,65.9,57.4,30.14,ESE,113,0.0,1.0,74,0.00,,OVC012,0.00,0.00,VWS V14.01,2013-07-13 03:40:00,
2013-07-12 23:41:00,65.8,57.7,30.14,ESE,112,1.0,1.0,75,0.00,,BKN065,0.00,0.00,VWS V14.01,2013-07-13 03:41:00,
2013-07-12 23:45:00,65.8,57.7,30.14,ESE,112,0.0,1.0,75,0.00,,OVC012,0.00,0.00,VWS V14.01,2013-07-13 03:45:00,
2013-07-12 23:46:00,65.8,57.7,30.14,ESE,113,0.0,2.0,75,0.00,,BKN065,0.00,0.00,VWS V14.01,2013-07-13 03:46:00,
2013-07-12 23:50:00,65.8,57.7,30.14,ESE,112,0.0,2.0,75,0.00,,OVC012,0.00,0.00,VWS V14.01,2013-07-13 03:50:00,
2013-07-12 23:51:00,65.6,57.8,30.14,ESE,113,1.0,2.0,76,0.00,,BKN065,0.00,0.00,VWS V14.01,2013-07-13 03:51:00,
2013-07-12 23:55:00,65.6,57.8,30.14,ESE,113,0.0,2.0,76,0.00,,OVC012,0.00,0.00,VWS V14.01,2013-07-13 03:55:00,
2013-07-12 23:57:00,65.4,58.0,30.15,ESE,112,2.0,2.0,77,0.00,,BKN065,0.00,0.00,VWS V14.01,2013-07-13 03:57:00,